Location: Bonn
(50.7330°N, 7.1000°E)
Time: 04:24:23
(UTC+02:00)

Cosmos 1933 Rocket - Visible Passes

Search period start: 03 September 2015 00:00
Search period end: 13 September 2015 00:00
Orbit: 606 x 632 km, 82.5° (Epoch: 02 September)

Date Brightness Start Highest point End Pass type
(mag) Time Alt. Az. Time Alt. Az. Time Alt. Az.
03 Sep 5.4 01:12:25 10° NNW 01:14:37 28° NNW 01:14:37 28° NNW visible
03 Sep 5.3 23:52:11 10° N 23:54:41 26° NE 23:54:41 26° NE visible
04 Sep 5.8 01:30:07 10° NNW 01:31:49 20° NW 01:31:49 20° NW visible
05 Sep 5.1 00:09:22 10° N 00:11:53 32° NNE 00:11:53 32° NNE visible
05 Sep 6.2 01:48:08 10° NW 01:49:02 14° NW 01:49:02 14° NW visible
05 Sep 5.9 22:50:29 10° NNE 22:51:58 13° NE 22:51:58 13° NE visible
06 Sep 5.2 00:26:44 10° N 00:29:07 32° NNW 00:29:07 32° NNW visible
06 Sep 5.5 23:06:59 10° NNE 23:09:11 19° NE 23:09:11 19° NE visible
07 Sep 5.5 00:44:15 10° NNW 00:46:20 26° NNW 00:46:20 26° NNW visible
07 Sep 5.2 23:23:57 10° N 23:26:25 26° NNE 23:26:25 26° NNE visible
08 Sep 5.9 01:01:57 10° NNW 01:03:34 19° NW 01:03:34 19° NW visible
08 Sep 5.0 23:41:10 10° N 23:43:40 32° NNE 23:43:40 32° NNE visible
09 Sep 6.3 01:20:01 10° NW 01:20:49 13° NW 01:20:49 13° NW visible
09 Sep 5.7 22:22:10 10° NNE 22:23:46 13° NE 22:23:46 13° NE visible
09 Sep 5.2 23:58:31 10° NNW 00:00:55 32° NNW 00:00:55 32° NNW visible
10 Sep 5.4 22:38:43 10° NNE 22:41:02 20° NE 22:41:02 20° NE visible
11 Sep 5.5 00:16:04 10° NNW 00:18:11 26° NW 00:18:11 26° NW visible
11 Sep 5.0 22:55:43 10° N 22:58:19 28° NNE 22:58:19 28° NNE visible
12 Sep 6.0 00:33:48 10° NNW 00:35:28 19° NW 00:35:28 19° NW visible
12 Sep 4.9 23:12:56 10° N 23:15:35 34° NNE 23:15:35 34° NNE visible
